Location: Unspecified
(0.0000°N, 0.0000°E)
Time: 19:57:05
(UTC+00:00)

STARLINK-1060 - Pass Details

Date: 19 January 2020
Orbit: 548 x 551 km, 53.0° (Epoch: 26 February)

Event Time Altitude Azimuth Distance (km) Brightness Sun altitude
Exits shadow 03:58:22 17° 162° (SSE) 1,414 6.1 -30.7°
Maximum altitude 04:00:17 24° 124° (SE) 1,168 5.9 -30.3°
Drops below altitude 10° 04:03:36 10° 70° (ENE) 1,811 6.8 -29.5°
Enters shadow 05:22:06 -28° 221° (SW) 7,091 9.1 -11.3°
